336P/McNaught (2006)

Japanese version
Home page
Updated on February 27, 2016

---------------------------------------------------------------------

* Profile

Designation 336P/2006 G1
Discovery Date April 5, 2006
Magnitude 18.0 mag
Discoverer R. H. McNaught (Siding Spring)

* Orbital Elements

Epoch 2006 Aug. 13.0 TT = JDT 2453960.5
T 2006 Aug. 18.51568 TT                                 MPCW
q   2.6320236            (2000.0)            P               Q
n   0.09320818     Peri.  313.94513     -0.25641666     +0.92582260
a   4.8176292      Node   299.25198     -0.77037595     -0.36925701
e   0.4536683      Incl.   18.55767     -0.58375628     +0.08063361
P  10.6
From 121 observations 2006 Apr. 5-2016 Feb. 14, mean residual 0".5.

* Magnitudes Graph

        m1 = 12.0 + 5 log d + 10.0 log r

---------------------------------------------------------------------

The orbital elements are published on M.P.E.C. 2016-C201.
The magnitudes graphs are made with Comet for Windows.

---------------------------------------------------------------------

Copyright(C) Seiichi Yoshida (comet@aerith.net). All rights reserved.